Flag for Germany Weather past 2 weeks in Oer-Erkenschwick, North Rhine-Westphalia, Germany

Now
54 °F

Passing clouds.


Feels Like: 52 °F
Forecast: 42 / 62 °F
Wind: 7 mph from West

Location: Dortmund / Wickede

Current Time: Sep 22, 2014 at 6:16:16 AM

Latest Report: Sep 22, 2014 at 5:50 AM


Visibility: N/A

Pressure: 30.07 "Hg

Humidity: 88%

Dew point: 50 °F

Location of Oer-ErkenschwickLocation

Historic Weather in Oer-Erkenschwick — Graph

°F

Oer-Erkenschwick temperature yesterday

Maximum temperature yesterday: 70 °F (at 1:50 PM)
Minimum temperature yesterday: 57 °F (at 8:50 PM)
Average temperature yesterday: 61 °F

Past Weeks' High & Low Weather Summary

 TemperatureHumidityPressure
High77 °F (Sep 16, 1:50 PM)100% (Sep 21, 10:20 AM)30.24 "Hg (Sep 21, 10:20 AM)
Low43 °F (Sep 12, 5:50 AM)39% (Sep 17, 3:20 PM)29.83 "Hg (Sep 19, 5:20 AM)
Average62 °F76%30.03 "Hg
* Reported Sep 7 5:20 AM — Sep 22 5:20 AM, Oer-Erkenschwick, Weather by CustomWeather, © 2014

Note: Actual official high and low records may vary slightly from our data, if they occured in-between our weather recording intervals... More about our weather records

Advertising

Oer-Erkenschwick weather history for previous 24 hours

 ConditionsComfort  
Time TempWeatherWind HumidityBarometerVisibility
5:20 AM
Sep 22
54 °FPartly cloudy.8 mph88%30.09 "HgN/A
10:20 PM
Sep 21
57 °FClear.6 mph88%30.09 "Hg10 mi
9:50 PM57 °FPassing clouds.5 mph94%30.09 "HgN/A
9:20 PM57 °FPassing clouds.5 mph82%30.07 "HgN/A
8:50 PM57 °FPassing clouds.6 mph82%30.07 "HgN/A
7:50 PM59 °FPassing clouds.8 mph82%30.07 "HgN/A
7:20 PM61 °FScattered clouds.5 mph77%30.04 "HgN/A
6:50 PM63 °FPassing clouds.6 mph73%30.04 "HgN/A
6:20 PM64 °FPassing clouds.6 mph73%30.04 "HgN/A
5:20 PM66 °FScattered clouds.7 mph68%30.01 "HgN/A
3:50 PM66 °FScattered clouds.8 mph73%30.01 "HgN/A
3:20 PM66 °FScattered clouds.7 mph73%30.01 "HgN/A
2:50 PM64 °FScattered clouds.7 mph83%30.01 "HgN/A
2:20 PM64 °FPartly sunny.6 mph83%30.01 "HgN/A
1:50 PM70 °FPartly sunny.7 mph73%30.01 "HgN/A
1:20 PM63 °FPartly sunny.7 mph88%30.01 "HgN/A
12:50 PM59 °FScattered showers. Broken clouds.6 mph100%30.01 "Hg6 mi
12:20 PM59 °FScattered showers. Partly sunny.7 mph100%30.01 "Hg6 mi
11:50 AM61 °FScattered showers. Partly sunny.6 mph94%30.01 "Hg5 mi
11:20 AM59 °FLight rain. Partly sunny.6 mph100%30.01 "Hg4 mi
10:50 AM59 °FLight rain. Fog.8 mph94%30.01 "Hg2 mi
10:20 AM59 °FLight rain. Fog.7 mph100%29.95 "Hg2 mi
9:50 AM61 °FFog.7 mph94%29.95 "Hg1 mi
9:20 AM61 °FFog.3 mph94%29.95 "Hg1 mi
8:50 AM61 °FFog.2 mph94%29.95 "Hg1 mi
8:20 AM61 °FFog.2 mph94%29.95 "Hg1 mi
7:50 AM61 °FFog.2 mph94%29.95 "Hg1 mi
7:20 AM61 °FFog.2 mph94%29.95 "Hg1 mi
6:50 AM61 °FFog.3 mph94%29.95 "Hg1 mi
6:20 AM61 °FFog.2 mph94%29.95 "Hg1 mi
Weather by CustomWeather, © 2014

See weather overviewHow to use our weather pages